Погода в Первомаевке

Россия / Республика Бурятия     52°01′56″N   108°24′01″E
темп.,
°C
ветер,
м/с
пор.,
м/с
влажн.,
%
обл.,
%
осадки,
мм/ч
давл.,
гПа
погр.,
м
22 мая, вс
вс2223:00+12з4674100 0.3 1010791
02:00+9зюз36870 0.3 1012216
05:00+8зюз269295 0.0 1012189
08:00+14зюз575999 0.0 1011746
11:00+20з61138100 0.0 10092446
14:00+22зсз8122824 0.0 10062735
17:00+22зсз71129100 0.0 10052846
20:00+18ссз114428 0.0 100411
23 мая, пн
пн2323:00+13ссз226390 0.1 100519
02:00+13с1169100 0.3 100434
05:00+12з2278100 0.2 100530
08:00+15сз611455 0.2 10071930
11:00+17сз711285 0.0 10082425
14:00+18ссз79270 0.0 10092198
17:00+16ссз69322 0.0 10111798
20:00+13ссз48430 0.0 1013783
24 мая, вт
вт2423:00+8сз22595 0.0 101719
02:00+6зсз11737 0.0 102011
05:00+5с017997 0.0 102211
08:00+12з11525 0.0 1024498
11:00+18ююз13323 0.0 10231784
14:00+22ю23244 0.0 10212589
17:00+23з22224 0.0 10202937
20:00+17сз35360 0.0 102291
25 мая, ср
ср2523:00+11сз11440 0.0 102412
02:00+8ссз01500 0.0 102410
05:00+7ююв01560 0.0 102510
08:00+15ююз01360 0.0 1024329
11:00+22з24235 0.0 10201390
14:00+25з341426 0.0 10162361
17:00+26зсз45130 0.0 10142723
20:00+21зсз22225 0.0 101311
26 мая, чт
чт2623:00+14в013479 0.0 101311
02:00+12в114048 0.0 101211
05:00+11св1140100 0.0 101113
08:00+16юз1131100 0.0 1009262
11:00+23зюз34215 0.0 1006894
14:00+28зюз371783 0.0 10023469
17:00+25сз7727100 0.0 10012092
20:00+20з4836100 0.0 1001332